date,time,SUV Intensity [MED/Hr],UV Index,Daily total [MED],Since Last [MED]
06/04/2022,00:06:35,0.001,0.0,0.0,0.0
06/04/2022,00:07:36,0.000,0.0,0.0,0.0
06/04/2022,00:08:35,0.000,0.0,0.0,0.0
06/04/2022,00:09:35,0.000,0.0,0.0,0.0
06/04/2022,00:10:35,-0.001,0.0,0.0,0.0
06/04/2022,00:11:43,0.000,0.0,0.0,0.0
06/04/2022,00:13:44,0.000,0.0,0.0,0.0
06/04/2022,00:15:36,-0.000,0.0,0.0,0.0
06/04/2022,00:16:35,-0.001,0.0,0.0,0.0
06/04/2022,00:17:35,-0.001,0.0,0.0,0.0
06/04/2022,00:18:35,-0.001,0.0,0.0,0.0
06/04/2022,00:19:35,-0.000,0.0,0.0,0.0
06/04/2022,00:20:35,-0.000,0.0,0.0,0.0
06/04/2022,00:21:35,-0.000,0.0,0.0,0.0
06/04/2022,00:23:00,0.000,0.0,0.0,0.0
06/04/2022,00:24:35,-0.000,0.0,0.0,0.0
06/04/2022,00:25:43,-0.000,0.0,0.0,0.0
06/04/2022,00:26:35,-0.001,0.0,0.0,0.0
06/04/2022,00:27:35,-0.000,0.0,0.0,0.0
06/04/2022,00:28:43,-0.000,0.0,0.0,0.0
06/04/2022,00:29:34,0.000,0.0,0.0,0.0
06/04/2022,00:30:35,0.000,0.0,0.0,0.0
06/04/2022,00:31:35,-0.000,0.0,0.0,0.0
06/04/2022,00:32:35,-0.001,0.0,0.0,0.0
06/04/2022,00:33:35,-0.000,0.0,0.0,0.0
06/04/2022,00:34:35,-0.000,0.0,0.0,0.0
06/04/2022,00:35:44,-0.000,0.0,0.0,0.0
06/04/2022,00:37:35,0.000,0.0,0.0,0.0
06/04/2022,00:38:35,-0.000,0.0,0.0,0.0
06/04/2022,00:39:35,-0.000,0.0,0.0,0.0
06/04/2022,00:40:35,0.000,0.0,0.0,0.0
06/04/2022,00:41:35,-0.000,0.0,0.0,0.0
06/04/2022,00:42:35,0.000,0.0,0.0,0.0
06/04/2022,00:43:35,0.000,0.0,0.0,0.0
06/04/2022,00:44:35,0.000,0.0,0.0,0.0
06/04/2022,00:45:35,0.000,0.0,0.0,0.0
06/04/2022,00:46:44,0.001,0.0,0.0,0.0
06/04/2022,00:48:35,-0.000,0.0,0.0,0.0
06/04/2022,00:49:35,0.000,0.0,0.0,0.0
06/04/2022,00:50:35,-0.000,0.0,0.0,0.0
06/04/2022,00:51:35,-0.000,0.0,0.0,0.0
06/04/2022,00:52:34,-0.001,0.0,0.0,0.0
06/04/2022,00:53:35,-0.000,0.0,0.0,0.0
06/04/2022,00:54:35,-0.000,0.0,0.0,0.0
06/04/2022,00:55:35,-0.000,0.0,0.0,0.0
06/04/2022,00:56:35,0.000,0.0,0.0,0.0
06/04/2022,00:57:35,0.000,0.0,0.0,0.0
06/04/2022,00:58:35,-0.001,0.0,0.0,0.0
06/04/2022,00:59:35,-0.001,0.0,0.0,0.0
06/04/2022,01:00:43,0.000,0.0,0.0,0.0
06/04/2022,01:02:36,0.000,0.0,0.0,0.0
06/04/2022,01:03:35,-0.001,0.0,0.0,0.0
06/04/2022,01:04:35,0.000,0.0,0.0,0.0
06/04/2022,01:05:45,0.000,0.0,0.0,0.0
06/04/2022,01:07:36,0.000,0.0,0.0,0.0
06/04/2022,01:08:35,-0.000,0.0,0.0,0.0
06/04/2022,01:09:36,0.000,0.0,0.0,0.0
06/04/2022,01:10:44,0.000,0.0,0.0,0.0
06/04/2022,01:11:35,0.000,0.0,0.0,0.0
06/04/2022,01:12:35,0.001,0.0,0.0,0.0
06/04/2022,01:13:35,0.000,0.0,0.0,0.0
06/04/2022,01:14:35,0.000,0.0,0.0,0.0
06/04/2022,01:15:35,-0.000,0.0,0.0,0.0
06/04/2022,01:16:35,-0.000,0.0,0.0,0.0
06/04/2022,01:17:35,0.000,0.0,0.0,0.0
06/04/2022,01:18:35,-0.000,0.0,0.0,0.0
06/04/2022,01:19:35,-0.001,0.0,0.0,0.0
06/04/2022,01:20:43,0.001,0.0,0.0,0.0
06/04/2022,01:21:35,-0.000,0.0,0.0,0.0
06/04/2022,01:22:35,-0.000,0.0,0.0,0.0
06/04/2022,01:23:35,-0.000,0.0,0.0,0.0
06/04/2022,01:24:35,0.000,0.0,0.0,0.0
06/04/2022,01:25:35,0.000,0.0,0.0,0.0
06/04/2022,01:26:35,0.001,0.0,0.0,0.0
06/04/2022,01:27:35,-0.000,0.0,0.0,0.0
06/04/2022,01:28:35,0.000,0.0,0.0,0.0
06/04/2022,01:29:35,-0.001,0.0,0.0,0.0
06/04/2022,01:30:36,-0.001,0.0,0.0,0.0
06/04/2022,01:31:35,-0.000,0.0,0.0,0.0
06/04/2022,01:32:36,-0.001,0.0,0.0,0.0
06/04/2022,01:33:36,-0.000,0.0,0.0,0.0
06/04/2022,01:34:44,0.001,0.0,0.0,0.0
06/04/2022,01:35:35,-0.000,0.0,0.0,0.0
06/04/2022,01:36:36,-0.000,0.0,0.0,0.0
06/04/2022,01:37:35,-0.000,0.0,0.0,0.0
06/04/2022,01:38:35,0.000,0.0,0.0,0.0
06/04/2022,01:39:36,-0.000,0.0,0.0,0.0
06/04/2022,01:40:35,-0.001,0.0,0.0,0.0
06/04/2022,01:41:35,-0.000,0.0,0.0,0.0
06/04/2022,01:42:35,-0.001,0.0,0.0,0.0
06/04/2022,01:43:36,-0.000,0.0,0.0,0.0
06/04/2022,01:44:36,-0.001,0.0,0.0,0.0
06/04/2022,01:45:35,0.000,0.0,0.0,0.0
06/04/2022,01:46:36,-0.000,0.0,0.0,0.0
06/04/2022,01:47:35,-0.000,0.0,0.0,0.0
06/04/2022,01:48:37,0.000,0.0,0.0,0.0
06/04/2022,01:49:34,-0.001,0.0,0.0,0.0
06/04/2022,01:50:35,-0.001,0.0,0.0,0.0
06/04/2022,01:51:36,-0.001,0.0,0.0,0.0
06/04/2022,01:52:44,-0.000,0.0,0.0,0.0
06/04/2022,01:54:36,-0.000,0.0,0.0,0.0
06/04/2022,01:55:43,0.001,0.0,0.0,0.0
06/04/2022,01:56:34,-0.000,0.0,0.0,0.0
06/04/2022,01:57:35,0.001,0.0,0.0,0.0
06/04/2022,01:58:35,0.000,0.0,0.0,0.0
06/04/2022,01:59:35,-0.000,0.0,0.0,0.0
06/04/2022,02:00:35,-0.000,0.0,0.0,0.0
06/04/2022,02:01:44,-0.000,0.0,0.0,0.0
06/04/2022,02:02:35,-0.000,0.0,0.0,0.0
06/04/2022,02:03:35,-0.000,0.0,0.0,0.0
06/04/2022,02:04:26,-0.001,0.0,0.0,0.0
06/04/2022,02:05:36,-0.000,0.0,0.0,0.0
06/04/2022,02:06:35,0.000,0.0,0.0,0.0
06/04/2022,02:07:35,0.001,0.0,0.0,0.0
06/04/2022,02:09:00,0.000,0.0,0.0,0.0
06/04/2022,02:10:37,-0.000,0.0,0.0,0.0
06/04/2022,02:11:35,0.001,0.0,0.0,0.0
06/04/2022,02:12:35,-0.000,0.0,0.0,0.0
06/04/2022,02:13:36,-0.000,0.0,0.0,0.0
06/04/2022,02:14:35,-0.000,0.0,0.0,0.0
06/04/2022,02:15:35,0.000,0.0,0.0,0.0
06/04/2022,02:16:35,0.000,0.0,0.0,0.0
06/04/2022,02:17:36,0.000,0.0,0.0,0.0
06/04/2022,02:18:35,-0.001,0.0,0.0,0.0
06/04/2022,02:19:35,-0.000,0.0,0.0,0.0
06/04/2022,02:20:35,0.000,0.0,0.0,0.0
06/04/2022,02:21:35,0.000,0.0,0.0,0.0
06/04/2022,02:22:37,0.002,0.0,0.0,0.0
06/04/2022,02:23:35,0.000,0.0,0.0,0.0
06/04/2022,02:24:36,-0.000,0.0,0.0,0.0
06/04/2022,02:25:35,-0.001,0.0,0.0,0.0
06/04/2022,02:26:35,0.000,0.0,0.0,0.0
06/04/2022,02:27:43,0.001,0.0,0.0,0.0
06/04/2022,02:28:34,0.001,0.0,0.0,0.0
06/04/2022,02:29:35,0.001,0.0,0.0,0.0
06/04/2022,02:30:44,-0.001,0.0,0.0,0.0
06/04/2022,02:32:35,0.000,0.0,0.0,0.0
06/04/2022,02:33:35,0.000,0.0,0.0,0.0
06/04/2022,02:34:35,-0.000,0.0,0.0,0.0
06/04/2022,02:35:36,0.000,0.0,0.0,0.0
06/04/2022,02:36:36,0.000,0.0,0.0,0.0
06/04/2022,02:37:35,0.000,0.0,0.0,0.0
06/04/2022,02:38:35,-0.000,0.0,0.0,0.0
06/04/2022,02:39:35,0.000,0.0,0.0,0.0
06/04/2022,02:40:35,0.000,0.0,0.0,0.0
06/04/2022,02:41:44,0.000,0.0,0.0,0.0
06/04/2022,02:43:35,0.000,0.0,0.0,0.0
06/04/2022,02:44:35,-0.000,0.0,0.0,0.0
06/04/2022,02:45:35,0.001,0.0,0.0,0.0
06/04/2022,02:46:35,0.000,0.0,0.0,0.0
06/04/2022,02:47:36,0.000,0.0,0.0,0.0
06/04/2022,02:48:35,-0.000,0.0,0.0,0.0
06/04/2022,02:49:35,0.001,0.0,0.0,0.0
06/04/2022,02:50:35,0.000,0.0,0.0,0.0
06/04/2022,02:51:43,-0.000,0.0,0.0,0.0
06/04/2022,02:53:36,0.001,0.0,0.0,0.0
06/04/2022,02:54:35,-0.000,0.0,0.0,0.0
06/04/2022,02:55:36,0.000,0.0,0.0,0.0
06/04/2022,02:56:44,-0.000,0.0,0.0,0.0
06/04/2022,02:58:36,-0.000,0.0,0.0,0.0
06/04/2022,02:59:36,0.001,0.0,0.0,0.0
06/04/2022,03:00:35,-0.001,0.0,0.0,0.0
06/04/2022,03:01:35,-0.000,0.0,0.0,0.0
06/04/2022,03:02:35,-0.000,0.0,0.0,0.0
06/04/2022,03:03:36,-0.001,0.0,0.0,0.0
06/04/2022,03:04:36,0.000,0.0,0.0,0.0
06/04/2022,03:05:35,0.000,0.0,0.0,0.0
06/04/2022,03:06:36,-0.001,0.0,0.0,0.0
06/04/2022,03:07:35,-0.000,0.0,0.0,0.0
06/04/2022,03:08:36,-0.000,0.0,0.0,0.0
06/04/2022,03:09:43,-0.000,0.0,0.0,0.0
06/04/2022,03:10:35,0.001,0.0,0.0,0.0
06/04/2022,03:11:35,0.000,0.0,0.0,0.0
06/04/2022,03:12:43,0.001,0.0,0.0,0.0
06/04/2022,03:13:35,0.001,0.0,0.0,0.0
06/04/2022,03:14:35,0.000,0.0,0.0,0.0
06/04/2022,03:15:44,0.000,0.0,0.0,0.0
06/04/2022,03:16:44,0.001,0.0,0.0,0.0
06/04/2022,03:17:35,0.000,0.0,0.0,0.0
06/04/2022,03:18:44,0.001,0.0,0.0,0.0
06/04/2022,03:19:35,0.000,0.0,0.0,0.0
06/04/2022,03:20:35,0.000,0.0,0.0,0.0
06/04/2022,03:21:35,0.000,0.0,0.0,0.0
06/04/2022,03:22:36,0.000,0.0,0.0,0.0
06/04/2022,03:23:43,0.001,0.0,0.0,0.0
06/04/2022,03:24:35,0.001,0.0,0.0,0.0
06/04/2022,03:25:35,0.001,0.0,0.0,0.0
06/04/2022,03:26:44,0.000,0.0,0.0,0.0
06/04/2022,03:27:35,-0.000,0.0,0.0,0.0
06/04/2022,03:28:35,0.000,0.0,0.0,0.0
06/04/2022,03:29:35,0.000,0.0,0.0,0.0
06/04/2022,03:30:35,-0.001,0.0,0.0,0.0
06/04/2022,03:31:35,0.000,0.0,0.0,0.0
06/04/2022,03:32:36,0.000,0.0,0.0,0.0
06/04/2022,03:33:35,0.000,0.0,0.0,0.0
06/04/2022,03:34:36,0.000,0.0,0.0,0.0
06/04/2022,03:35:35,0.000,0.0,0.0,0.0
06/04/2022,03:36:35,0.001,0.0,0.0,0.0
06/04/2022,03:37:36,0.000,0.0,0.0,0.0
06/04/2022,03:38:35,0.001,0.0,0.0,0.0
06/04/2022,03:39:35,0.000,0.0,0.0,0.0
06/04/2022,03:40:36,0.000,0.0,0.0,0.0
06/04/2022,03:41:36,0.000,0.0,0.0,0.0
06/04/2022,03:42:35,0.001,0.0,0.0,0.0
06/04/2022,03:43:36,0.000,0.0,0.0,0.0
06/04/2022,03:44:43,0.000,0.0,0.0,0.0
06/04/2022,03:45:35,0.000,0.0,0.0,0.0
06/04/2022,03:46:35,-0.001,0.0,0.0,0.0
06/04/2022,03:47:43,0.000,0.0,0.0,0.0
06/04/2022,03:48:34,0.000,0.0,0.0,0.0
06/04/2022,03:49:35,0.000,0.0,0.0,0.0
06/04/2022,03:50:43,-0.000,0.0,0.0,0.0
06/04/2022,03:52:44,0.000,0.0,0.0,0.0
06/04/2022,03:54:36,0.000,0.0,0.0,0.0
06/04/2022,03:55:34,0.001,0.0,0.0,0.0
06/04/2022,03:56:36,0.000,0.0,0.0,0.0
06/04/2022,03:57:35,-0.000,0.0,0.0,0.0
06/04/2022,03:58:35,0.000,0.0,0.0,0.0
06/04/2022,03:59:36,-0.000,0.0,0.0,0.0
06/04/2022,04:00:36,0.000,0.0,0.0,0.0
06/04/2022,04:01:35,0.000,0.0,0.0,0.0
06/04/2022,04:02:35,0.000,0.0,0.0,0.0
06/04/2022,04:03:35,0.000,0.0,0.0,0.0
06/04/2022,04:04:36,-0.000,0.0,0.0,0.0
06/04/2022,04:05:36,0.000,0.0,0.0,0.0
06/04/2022,04:06:35,0.000,0.0,0.0,0.0
06/04/2022,04:07:35,0.000,0.0,0.0,0.0
06/04/2022,04:08:35,0.002,0.0,0.0,0.0
06/04/2022,04:09:35,0.000,0.0,0.0,0.0
06/04/2022,04:10:36,0.000,0.0,0.0,0.0
06/04/2022,04:11:35,-0.001,0.0,0.0,0.0
06/04/2022,04:12:44,-0.001,0.0,0.0,0.0
06/04/2022,04:14:36,0.000,0.0,0.0,0.0
06/04/2022,04:15:35,0.000,0.0,0.0,0.0
06/04/2022,04:16:35,0.001,0.0,0.0,0.0
06/04/2022,04:17:35,-0.001,0.0,0.0,0.0
06/04/2022,04:18:35,0.000,0.0,0.0,0.0
06/04/2022,04:19:36,-0.000,0.0,0.0,0.0
06/04/2022,04:20:35,0.000,0.0,0.0,0.0
06/04/2022,04:21:36,-0.001,0.0,0.0,0.0
06/04/2022,04:22:36,-0.001,0.0,0.0,0.0
06/04/2022,04:23:35,-0.001,0.0,0.0,0.0
06/04/2022,04:24:36,0.000,0.0,0.0,0.0
06/04/2022,04:25:35,-0.001,0.0,0.0,0.0
06/04/2022,04:26:36,0.000,0.0,0.0,0.0
06/04/2022,04:27:35,0.000,0.0,0.0,0.0
06/04/2022,04:28:36,-0.001,0.0,0.0,0.0
06/04/2022,04:29:36,-0.000,0.0,0.0,0.0
06/04/2022,04:30:36,-0.000,0.0,0.0,0.0
06/04/2022,04:31:35,-0.001,0.0,0.0,0.0
06/04/2022,04:32:36,0.000,0.0,0.0,0.0
06/04/2022,04:33:44,0.000,0.0,0.0,0.0
06/04/2022,04:34:35,0.000,0.0,0.0,0.0
06/04/2022,04:35:35,0.000,0.0,0.0,0.0
06/04/2022,04:36:44,-0.000,0.0,0.0,0.0
06/04/2022,04:38:45,0.000,0.0,0.0,0.0
06/04/2022,04:40:36,-0.000,0.0,0.0,0.0
06/04/2022,04:41:35,-0.001,0.0,0.0,0.0
06/04/2022,04:42:36,0.000,0.0,0.0,0.0
06/04/2022,04:43:35,0.000,0.0,0.0,0.0
06/04/2022,04:44:43,-0.000,0.0,0.0,0.0
06/04/2022,04:45:35,0.000,0.0,0.0,0.0
06/04/2022,04:46:35,0.000,0.0,0.0,0.0
06/04/2022,04:47:35,0.000,0.0,0.0,0.0
06/04/2022,04:48:36,0.000,0.0,0.0,0.0
06/04/2022,04:49:36,0.001,0.0,0.0,0.0
06/04/2022,04:50:35,0.000,0.0,0.0,0.0
06/04/2022,04:51:36,-0.001,0.0,0.0,0.0
06/04/2022,04:52:37,0.000,0.0,0.0,0.0
06/04/2022,04:53:35,-0.001,0.0,0.0,0.0
06/04/2022,04:54:44,0.001,0.0,0.0,0.0
06/04/2022,04:56:36,-0.000,0.0,0.0,0.0
06/04/2022,04:57:43,0.000,0.0,0.0,0.0
06/04/2022,04:59:36,0.000,0.0,0.0,0.0
06/04/2022,05:00:35,-0.000,0.0,0.0,0.0
06/04/2022,05:01:35,-0.001,0.0,0.0,0.0
06/04/2022,05:02:35,0.000,0.0,0.0,0.0
06/04/2022,05:03:52,0.000,0.0,0.0,0.0
06/04/2022,05:05:36,-0.000,0.0,0.0,0.0
06/04/2022,05:06:36,0.001,0.0,0.0,0.0
06/04/2022,05:07:35,0.000,0.0,0.0,0.0
06/04/2022,05:08:44,-0.000,0.0,0.0,0.0
06/04/2022,05:10:36,0.001,0.0,0.0,0.0
06/04/2022,05:11:36,-0.001,0.0,0.0,0.0
06/04/2022,05:12:35,0.001,0.0,0.0,0.0
06/04/2022,05:13:35,0.000,0.0,0.0,0.0
06/04/2022,05:14:37,0.000,0.0,0.0,0.0
06/04/2022,05:15:36,0.000,0.0,0.0,0.0
06/04/2022,05:16:43,0.000,0.0,0.0,0.0
06/04/2022,05:17:34,0.001,0.0,0.0,0.0
06/04/2022,05:18:36,0.000,0.0,0.0,0.0
06/04/2022,05:19:35,0.000,0.0,0.0,0.0
06/04/2022,05:20:36,0.001,0.0,0.0,0.0
06/04/2022,05:21:36,0.001,0.0,0.0,0.0
06/04/2022,05:22:35,-0.000,0.0,0.0,0.0
06/04/2022,05:23:36,0.001,0.0,0.0,0.0
06/04/2022,05:24:35,0.001,0.0,0.0,0.0
06/04/2022,05:25:35,0.001,0.0,0.0,0.0
06/04/2022,05:26:35,0.001,0.0,0.0,0.0
06/04/2022,05:27:35,0.001,0.0,0.0,0.0
06/04/2022,05:28:35,0.001,0.0,0.0,0.0
06/04/2022,05:29:36,0.001,0.0,0.0,0.0
06/04/2022,05:30:35,0.001,0.0,0.0,0.0
06/04/2022,05:31:36,0.001,0.0,0.0,0.0
06/04/2022,05:32:35,0.000,0.0,0.0,0.0
06/04/2022,05:33:36,0.001,0.0,0.0,0.0
06/04/2022,05:34:36,0.001,0.0,0.0,0.0
06/04/2022,05:35:36,0.001,0.0,0.0,0.0
06/04/2022,05:36:35,0.001,0.0,0.0,0.0
06/04/2022,05:37:36,0.001,0.0,0.0,0.0
06/04/2022,05:38:35,0.002,0.0,0.0,0.0
06/04/2022,05:39:53,0.002,0.0,0.0,0.0
06/04/2022,05:41:36,0.001,0.0,0.0,0.0
06/04/2022,05:42:35,0.002,0.0,0.0,0.0
06/04/2022,05:43:36,0.002,0.0,0.0,0.0
06/04/2022,05:44:35,0.002,0.0,0.0,0.0
06/04/2022,05:45:35,0.001,0.0,0.0,0.0
06/04/2022,05:46:36,0.003,0.0,0.0,0.0
06/04/2022,05:47:35,0.003,0.0,0.0,0.0
06/04/2022,05:48:36,0.003,0.0,0.0,0.0
06/04/2022,05:49:36,0.003,0.0,0.0,0.0
06/04/2022,05:50:35,0.003,0.0,0.0,0.0
06/04/2022,05:51:35,0.003,0.0,0.0,0.0
06/04/2022,05:52:36,0.004,0.0,0.0,0.0
06/04/2022,05:53:36,0.003,0.0,0.0,0.0
06/04/2022,05:54:35,0.003,0.0,0.0,0.0
06/04/2022,05:55:44,0.002,0.0,0.0,0.0
06/04/2022,05:57:36,0.003,0.0,0.0,0.0
06/04/2022,05:58:44,0.004,0.0,0.0,0.0
06/04/2022,06:00:36,0.005,0.0,0.0,0.0
06/04/2022,06:01:36,0.004,0.0,0.0,0.0
06/04/2022,06:02:35,0.004,0.0,0.0,0.0
06/04/2022,06:03:37,0.004,0.0,0.0,0.0
06/04/2022,06:04:36,0.005,0.0,0.0,0.0
06/04/2022,06:05:43,0.005,0.0,0.0,0.0
06/04/2022,06:06:36,0.006,0.0,0.0,0.0
06/04/2022,06:07:35,0.007,0.0,0.0,0.0
06/04/2022,06:08:35,0.005,0.0,0.0,0.0
06/04/2022,06:09:35,0.005,0.0,0.0,0.0
06/04/2022,06:11:36,0.005,0.0,0.0,0.0
06/04/2022,06:12:36,0.006,0.0,0.0,0.0
06/04/2022,06:13:35,0.006,0.0,0.0,0.0
06/04/2022,06:14:36,0.008,0.0,0.0,0.0
06/04/2022,06:15:35,0.009,0.0,0.0,0.0
06/04/2022,06:16:44,0.012,0.0,0.001,0.001
06/04/2022,06:18:36,0.016,0.0,0.001,0.0
06/04/2022,06:19:36,0.016,0.0,0.001,0.0
06/04/2022,06:20:35,0.016,0.0,0.002,0.001
06/04/2022,06:21:36,0.015,0.0,0.002,0.0
06/04/2022,06:22:35,0.017,0.0,0.002,0.0
06/04/2022,06:23:36,0.018,0.0,0.002,0.0
06/04/2022,06:24:36,0.018,0.0,0.003,0.001
06/04/2022,06:25:35,0.018,0.0,0.003,0.0
06/04/2022,06:26:36,0.020,0.0,0.003,0.0
06/04/2022,06:27:36,0.020,0.0,0.004,0.001
06/04/2022,06:28:35,0.019,0.0,0.004,0.0
06/04/2022,06:29:36,0.017,0.0,0.004,0.0
06/04/2022,06:30:35,0.016,0.0,0.005,0.001
06/04/2022,06:31:35,0.016,0.0,0.005,0.0
06/04/2022,06:32:36,0.017,0.0,0.005,0.0
06/04/2022,06:33:37,0.014,0.0,0.005,0.0
06/04/2022,06:34:44,0.014,0.0,0.006,0.001
06/04/2022,06:35:35,0.015,0.0,0.006,0.0
06/04/2022,06:36:35,0.015,0.0,0.006,0.0
06/04/2022,06:37:44,0.015,0.0,0.006,0.0
06/04/2022,06:38:35,0.019,0.0,0.007,0.001
06/04/2022,06:39:37,0.015,0.0,0.007,0.0
06/04/2022,06:40:43,0.012,0.0,0.007,0.0
06/04/2022,06:41:35,0.010,0.0,0.007,0.0
06/04/2022,06:42:36,0.008,0.0,0.008,0.001
06/04/2022,06:43:35,0.007,0.0,0.008,0.0
06/04/2022,06:44:36,0.008,0.0,0.008,0.0
06/04/2022,06:45:35,0.010,0.0,0.008,0.0
06/04/2022,06:46:36,0.012,0.0,0.008,0.0
06/04/2022,06:47:36,0.016,0.0,0.008,0.0
06/04/2022,06:48:43,0.024,0.0,0.009,0.001
06/04/2022,06:50:36,0.022,0.0,0.009,0.0
06/04/2022,06:51:44,0.021,0.0,0.01,0.001
06/04/2022,06:53:36,0.019,0.0,0.01,0.0
06/04/2022,06:54:36,0.019,0.0,0.011,0.001
06/04/2022,06:55:35,0.020,0.0,0.011,0.0
06/04/2022,06:56:35,0.025,0.0,0.011,0.0
06/04/2022,06:57:36,0.030,0.0,0.012,0.001
06/04/2022,06:58:45,0.030,0.0,0.013,0.001
06/04/2022,07:00:36,0.020,0.0,0.013,0.0
06/04/2022,07:01:36,0.021,0.0,0.014,0.001
06/04/2022,07:02:36,0.020,0.0,0.014,0.0
06/04/2022,07:03:35,0.019,0.0,0.014,0.0
06/04/2022,07:04:36,0.025,0.0,0.015,0.001
06/04/2022,07:05:35,0.022,0.0,0.015,0.0
06/04/2022,07:06:44,0.026,0.0,0.016,0.001
06/04/2022,07:08:36,0.025,0.0,0.016,0.0
06/04/2022,07:09:36,0.025,0.0,0.017,0.001
06/04/2022,07:10:36,0.022,0.0,0.017,0.0
06/04/2022,07:11:38,0.028,0.0,0.018,0.001
06/04/2022,07:12:35,0.033,0.0,0.018,0.0
06/04/2022,07:13:36,0.034,0.0,0.019,0.001
06/04/2022,07:14:35,0.030,0.0,0.019,0.0
06/04/2022,07:15:36,0.027,0.0,0.02,0.001
06/04/2022,07:16:44,0.029,0.0,0.02,0.0
06/04/2022,07:17:35,0.031,0.0,0.021,0.001
06/04/2022,07:18:36,0.032,0.0,0.021,0.0
06/04/2022,07:19:35,0.027,0.0,0.022,0.001
06/04/2022,07:20:37,0.032,0.0,0.022,0.0
06/04/2022,07:21:35,0.033,0.0,0.023,0.001
06/04/2022,07:22:36,0.034,0.0,0.023,0.0
06/04/2022,07:23:36,0.035,0.0,0.024,0.001
06/04/2022,07:24:36,0.030,0.0,0.024,0.0
06/04/2022,07:25:36,0.033,0.0,0.025,0.001
06/04/2022,07:26:36,0.041,0.0,0.025,0.0
06/04/2022,07:27:44,0.041,0.0,0.026,0.001
06/04/2022,07:28:35,0.043,0.0,0.027,0.001
06/04/2022,07:29:36,0.040,0.0,0.028,0.001
06/04/2022,07:30:44,0.049,0.0,0.028,0.0
06/04/2022,07:32:37,0.065,0.0,0.03,0.002
06/04/2022,07:33:35,0.063,0.0,0.031,0.001
06/04/2022,07:34:36,0.054,0.0,0.032,0.001
06/04/2022,07:35:36,0.052,0.0,0.033,0.001
06/04/2022,07:36:36,0.056,0.0,0.034,0.001
06/04/2022,07:37:35,0.047,0.0,0.035,0.001
06/04/2022,07:38:36,0.041,0.0,0.036,0.001
06/04/2022,07:39:44,0.064,0.0,0.036,0.0
06/04/2022,07:40:36,0.087,0.0,0.038,0.002
06/04/2022,07:41:35,0.076,0.0,0.039,0.001
06/04/2022,07:42:36,0.074,0.0,0.04,0.001
06/04/2022,07:43:36,0.079,0.0,0.041,0.001
06/04/2022,07:44:35,0.099,0.0,0.043,0.002
06/04/2022,07:45:35,0.123,0.0,0.045,0.002
06/04/2022,07:46:36,0.128,0.0,0.047,0.002
06/04/2022,07:47:36,0.127,0.0,0.049,0.002
06/04/2022,07:48:44,0.113,0.0,0.051,0.002
06/04/2022,07:49:35,0.118,0.0,0.053,0.002
06/04/2022,07:50:36,0.113,0.0,0.055,0.002
06/04/2022,07:51:35,0.119,0.0,0.057,0.002
06/04/2022,07:52:51,0.130,0.0,0.059,0.002
06/04/2022,07:54:36,0.141,0.0,0.063,0.004
06/04/2022,07:55:35,0.140,0.0,0.066,0.003
06/04/2022,07:56:36,0.138,0.0,0.068,0.002
06/04/2022,07:57:36,0.137,0.0,0.07,0.002
06/04/2022,07:58:36,0.133,0.0,0.072,0.002
06/04/2022,07:59:44,0.130,0.0,0.075,0.003
06/04/2022,08:00:35,0.136,0.0,0.077,0.002
06/04/2022,08:01:36,0.145,0.0,0.079,0.002
06/04/2022,08:02:35,0.151,0.0,0.082,0.003
06/04/2022,08:03:35,0.155,0.0,0.084,0.002
06/04/2022,08:04:36,0.162,0.0,0.087,0.003
06/04/2022,08:05:36,0.174,0.0,0.09,0.003
06/04/2022,08:06:45,0.179,0.0,0.093,0.003
06/04/2022,08:08:36,0.156,0.0,0.098,0.005
06/04/2022,08:09:35,0.116,0.0,0.101,0.003
06/04/2022,08:10:36,0.099,0.0,0.102,0.001
06/04/2022,08:11:35,0.096,0.0,0.104,0.002
06/04/2022,08:12:36,0.094,0.0,0.106,0.002
06/04/2022,08:13:44,0.083,0.0,0.107,0.001
06/04/2022,08:14:34,0.080,0.0,0.108,0.001
06/04/2022,08:15:35,0.077,0.0,0.11,0.002
06/04/2022,08:16:44,0.083,0.0,0.111,0.001
06/04/2022,08:17:35,0.095,0.0,0.113,0.002
06/04/2022,08:18:36,0.106,0.0,0.114,0.001
06/04/2022,08:19:36,0.111,0.0,0.116,0.002
06/04/2022,08:20:35,0.106,0.0,0.118,0.002
06/04/2022,08:21:35,0.085,0.0,0.12,0.002
06/04/2022,08:22:36,0.094,0.0,0.121,0.001
06/04/2022,08:23:36,0.134,0.0,0.123,0.002
06/04/2022,08:24:36,0.141,0.0,0.125,0.002
06/04/2022,08:25:37,0.153,0.0,0.128,0.003
06/04/2022,08:26:36,0.147,0.0,0.13,0.002
06/04/2022,08:27:36,0.145,0.0,0.133,0.003
06/04/2022,08:28:35,0.163,0.0,0.135,0.002
06/04/2022,08:29:35,0.168,0.0,0.138,0.003
06/04/2022,08:30:36,0.165,0.0,0.141,0.003
06/04/2022,08:31:36,0.169,0.0,0.143,0.002
06/04/2022,08:32:35,0.184,0.0,0.146,0.003
06/04/2022,08:33:36,0.208,0.0,0.15,0.004
06/04/2022,08:34:36,0.229,1.0,0.153,0.003
06/04/2022,08:35:35,0.207,0.0,0.157,0.004
06/04/2022,08:36:36,0.173,0.0,0.16,0.003
06/04/2022,08:37:44,0.145,0.0,0.163,0.003
06/04/2022,08:38:35,0.145,0.0,0.165,0.002
06/04/2022,08:39:36,0.160,0.0,0.168,0.003
06/04/2022,08:40:36,0.160,0.0,0.17,0.002
06/04/2022,08:41:36,0.164,0.0,0.173,0.003
06/04/2022,08:42:36,0.159,0.0,0.176,0.003
06/04/2022,08:43:36,0.126,0.0,0.178,0.002
06/04/2022,08:44:36,0.119,0.0,0.18,0.002
06/04/2022,08:45:44,0.115,0.0,0.182,0.002
06/04/2022,08:47:37,0.101,0.0,0.186,0.004
06/04/2022,08:48:36,0.089,0.0,0.187,0.001
06/04/2022,08:49:36,0.075,0.0,0.189,0.002
06/04/2022,08:50:36,0.088,0.0,0.19,0.001
06/04/2022,08:51:36,0.078,0.0,0.192,0.002
06/04/2022,08:52:36,0.078,0.0,0.193,0.001
06/04/2022,08:53:36,0.089,0.0,0.194,0.001
06/04/2022,08:54:35,0.089,0.0,0.196,0.002
06/04/2022,08:55:44,0.093,0.0,0.197,0.001
06/04/2022,08:57:45,0.169,0.0,0.201,0.004
06/04/2022,08:59:38,0.254,1.0,0.208,0.007
06/04/2022,09:00:36,0.277,1.0,0.213,0.005
06/04/2022,09:01:36,0.267,1.0,0.217,0.004
06/04/2022,09:02:36,0.265,1.0,0.222,0.005
06/04/2022,09:03:36,0.277,1.0,0.226,0.004
06/04/2022,09:04:35,0.268,1.0,0.231,0.005
06/04/2022,09:05:36,0.274,1.0,0.235,0.004
06/04/2022,09:06:44,0.277,1.0,0.24,0.005
06/04/2022,09:07:35,0.266,1.0,0.244,0.004
06/04/2022,09:08:35,0.255,1.0,0.249,0.005
06/04/2022,09:09:44,0.255,1.0,0.253,0.004
06/04/2022,09:10:36,0.278,1.0,0.257,0.004
06/04/2022,09:11:36,0.312,1.0,0.262,0.005
06/04/2022,09:12:36,0.351,1.0,0.268,0.006
06/04/2022,09:13:36,0.369,1.0,0.274,0.006
06/04/2022,09:14:36,0.365,1.0,0.28,0.006
06/04/2022,09:15:36,0.377,1.0,0.286,0.006
06/04/2022,09:16:45,0.399,1.0,0.293,0.007
06/04/2022,09:17:36,0.410,1.0,0.299,0.006
06/04/2022,09:18:35,0.400,1.0,0.306,0.007
06/04/2022,09:19:38,0.412,1.0,0.313,0.007
06/04/2022,09:20:35,0.420,1.0,0.32,0.007
06/04/2022,09:21:36,0.437,1.0,0.327,0.007
06/04/2022,09:22:36,0.442,1.0,0.334,0.007
06/04/2022,09:23:36,0.419,1.0,0.341,0.007
06/04/2022,09:24:49,0.427,1.0,0.35,0.009
06/04/2022,09:26:36,0.438,1.0,0.363,0.013
06/04/2022,09:27:44,0.436,1.0,0.371,0.008
06/04/2022,09:29:37,0.419,1.0,0.384,0.013
06/04/2022,09:30:36,0.404,1.0,0.391,0.007
06/04/2022,09:31:36,0.387,1.0,0.398,0.007
06/04/2022,09:32:36,0.374,1.0,0.404,0.006
06/04/2022,09:33:45,0.360,1.0,0.411,0.007
06/04/2022,09:34:36,0.369,1.0,0.416,0.005
06/04/2022,09:35:35,0.386,1.0,0.423,0.007
06/04/2022,09:36:36,0.390,1.0,0.429,0.006
06/04/2022,09:37:44,0.379,1.0,0.436,0.007
06/04/2022,09:38:36,0.370,1.0,0.442,0.006
06/04/2022,09:39:36,0.376,1.0,0.448,0.006
06/04/2022,09:40:36,0.387,1.0,0.454,0.006
06/04/2022,09:41:45,0.387,1.0,0.462,0.008
06/04/2022,09:42:37,0.388,1.0,0.467,0.005
06/04/2022,09:43:36,0.398,1.0,0.474,0.007
06/04/2022,09:44:36,0.414,1.0,0.481,0.007
06/04/2022,09:45:36,0.417,1.0,0.488,0.007
06/04/2022,09:46:36,0.426,1.0,0.495,0.007
06/04/2022,09:47:36,0.435,1.0,0.502,0.007
06/04/2022,09:48:44,0.441,1.0,0.51,0.008
06/04/2022,09:50:36,0.431,1.0,0.524,0.014
06/04/2022,09:51:35,0.423,1.0,0.531,0.007
06/04/2022,09:52:36,0.417,1.0,0.538,0.007
06/04/2022,09:53:36,0.423,1.0,0.545,0.007
06/04/2022,09:54:36,0.422,1.0,0.552,0.007
06/04/2022,09:55:36,0.436,1.0,0.559,0.007
06/04/2022,09:56:36,0.445,1.0,0.566,0.007
06/04/2022,09:57:36,0.446,1.0,0.574,0.008
06/04/2022,09:58:36,0.467,1.0,0.581,0.007
06/04/2022,09:59:36,0.472,1.0,0.589,0.008
06/04/2022,10:00:36,0.485,1.0,0.597,0.008
06/04/2022,10:01:36,0.511,1.0,0.605,0.008
06/04/2022,10:02:36,0.534,1.0,0.614,0.009
06/04/2022,10:03:36,0.548,1.0,0.623,0.009
06/04/2022,10:04:43,0.554,1.0,0.633,0.01
06/04/2022,10:05:43,0.560,1.0,0.642,0.009
06/04/2022,10:06:36,0.568,1.0,0.651,0.009
06/04/2022,10:07:36,0.575,1.0,0.66,0.009
06/04/2022,10:08:36,0.582,1.0,0.67,0.01
06/04/2022,10:09:45,0.599,1.0,0.681,0.011
06/04/2022,10:10:35,0.583,1.0,0.69,0.009
06/04/2022,10:11:36,0.558,1.0,0.699,0.009
06/04/2022,10:12:44,0.518,1.0,0.709,0.01
06/04/2022,10:13:36,0.532,1.0,0.717,0.008
06/04/2022,10:14:36,0.524,1.0,0.726,0.009
06/04/2022,10:15:36,0.496,1.0,0.734,0.008
06/04/2022,10:16:44,0.483,1.0,0.743,0.009
06/04/2022,10:17:37,0.471,1.0,0.75,0.007
06/04/2022,10:18:36,0.464,1.0,0.758,0.008
06/04/2022,10:19:36,0.461,1.0,0.766,0.008
06/04/2022,10:20:34,0.410,1.0,0.773,0.007
06/04/2022,10:21:36,0.436,1.0,0.78,0.007
06/04/2022,10:22:36,0.490,1.0,0.788,0.008
06/04/2022,10:23:37,0.530,1.0,0.796,0.008
06/04/2022,10:24:36,0.555,1.0,0.805,0.009
06/04/2022,10:25:36,0.548,1.0,0.814,0.009
06/04/2022,10:26:36,0.581,1.0,0.824,0.01
06/04/2022,10:27:36,0.602,1.0,0.834,0.01
06/04/2022,10:28:36,0.582,1.0,0.844,0.01
06/04/2022,10:29:36,0.478,1.0,0.852,0.008
06/04/2022,10:30:36,0.467,1.0,0.86,0.008
06/04/2022,10:31:36,0.571,1.0,0.869,0.009
06/04/2022,10:32:36,0.552,1.0,0.878,0.009
06/04/2022,10:33:44,0.602,1.0,0.889,0.011
06/04/2022,10:34:35,0.612,1.0,0.898,0.009
06/04/2022,10:35:36,0.571,1.0,0.908,0.01
06/04/2022,10:36:36,0.550,1.0,0.917,0.009
06/04/2022,10:37:36,0.548,1.0,0.926,0.009
06/04/2022,10:38:36,0.533,1.0,0.935,0.009
06/04/2022,10:39:36,0.538,1.0,0.944,0.009
06/04/2022,10:40:36,0.551,1.0,0.953,0.009
06/04/2022,10:41:36,0.585,1.0,0.963,0.01
06/04/2022,10:42:36,0.599,1.0,0.973,0.01
06/04/2022,10:43:36,0.588,1.0,0.983,0.01
06/04/2022,10:44:44,0.580,1.0,0.994,0.011
06/04/2022,10:46:37,0.641,1.0,1.013,0.019
06/04/2022,10:47:35,0.645,1.0,1.023,0.01
06/04/2022,10:48:36,0.661,2.0,1.034,0.011